Location: Cedar Ridge
(38.0658°N, 120.2769°W)
Time: 20:53:58
(UTC+00:00)

CBERS-1 - Pass Details

Date: 10 September 2024
Orbit: 766 x 774 km, 98.8° (Epoch: 12 October)

Event Time Altitude Azimuth Distance (km) Brightness Sun altitude
Rises 13:01:42 0° 9° (N) 3,242 7.5 -8.1°
Reaches altitude 10° 13:04:02 10° 6° (N) 2,312 6.7 -7.7°
Maximum altitude 13:09:03 62° 287° (WNW) 859 4.1 -6.7°
Drops below altitude 10° 13:14:02 10° 207° (SSW) 2,299 6.1 -5.7°
Sets 13:16:21 0° 204° (SSW) 3,222 6.9 -5.3°
